Wind_Speed
110 107 103 96 88 83 79 76 72 74 79 78 76 74 69 66 63 59 61 64 60 56 56 54 52 53 55 56 59 60 58 57 56 52 53 55 50 52 54 48 51 52 46 47 50 49 48 48 48 48 50 50 49 50 50 48 45 45 46 46 45 44 43 43 42 42 41 41 41 40 40 40 40 38 37 37 38 37 37 36 37 36 30 26 25 25
112 109 102 94 88 86 84 81 79 78 81 81 79 76 70 66 63 60 62 63 60 56 56 57 55 54 54 55 58 56 52 54 52 47 49 51 50 52 52 46 49 50 44 47 50 48 47 48 47 49 50 50 49 49 47 45 44 46 47 46 45 44 44 44 43 42 42 41 41 41 41 40 39 38 38 39 39 38 38 38 39 36 30 26 27 27
110 106 99 94 92 92 89 85 83 81 81 81 81 78 71 66 64 63 63 63 60 56 57 59 56 55 54 56 59 54 51 51 44 41 47 49 47 47 46 44 47 48 43 45 47 45 46 47 47 49 49 49 47 46 45 44 45 46 46 45 44 44 44 44 43 43 43 43 42 42 40 39 37 37 38 38 38 38 37 38 38 36 33 32 32 31
104 101 99 99 98 96 93 89 86 84 81 80 81 79 72 68 67 64 62 62 61 57 57 59 58 57 56 58 59 54 52 48 39 41 46 42 40 40 40 41 45 44 40 42 44 44 44 46 47 48 47 46 44 43 44 44 45 45 44 44 43 43 43 44 44 43 44 43 42 42 40 38 37 37 38 37 37 38 37 38 37 35 34 33 34 33
99 98 101 104 102 99 95 92 88 85 82 79 79 77 73 69 66 63 63 64 64 60 57 58 59 58 56 57 58 53 50 43 37 43 44 36 36 37 37 39 40 38 36 38 42 42 43 43 44 45 44 42 41 41 43 42 43 43 43 42 41 41 42 43 43 43 43 43 42 41 39 37 36 38 39 37 37 37 37 36 35 34 33 32 32 33
97 95 101 105 104 101 98 95 91 87 83 79 76 75 73 71 68 68 69 67 66 61 55 56 60 57 54 56 55 50 46 40 37 41 40 34 34 36 37 39 37 33 32 35 38 40 40 40 40 40 39 38 38 40 41 40 41 42 41 40 39 39 41 41 41 41 41 39 38 37 36 34 34 37 38 37 37 37 37 36 35 34 34 34 35 35
95 95 100 104 104 104 101 97 94 89 85 80 75 73 74 75 74 72 71 67 63 60 56 57 60 58 56 56 52 47 43 39 38 38 36 33 32 34 37 38 35 31 31 35 38 39 39 39 39 39 38 37 38 39 38 38 40 40 39 38 37 39 39 38 37 37 36 35 33 32 30 30 31 35 37 36 36 36 36 35 34 34 34 35 35 33
93 96 100 103 105 106 104 99 96 91 86 80 75 74 76 78 78 73 71 68 63 65 64 59 60 63 58 54 50 47 43 40 38 36 35 33 31 33 34 34 34 31 32 38 40 39 38 39 39 39 38 37 36 36 36 37 38 37 37 37 38 38 37 36 35 34 32 31 29 26 25 28 31 33 33 33 33 35 34 33 33 34 33 33 31 28
90 97 102 102 103 106 105 100 96 92 86 80 78 77 77 79 80 74 73 71 70 73 68 58 59 64 56 51 51 48 43 40 37 35 35 33 32 33 33 32 32 31 34 38 39 37 36 39 40 39 37 34 34 35 36 37 37 37 38 39 39 38 36 35 34 32 31 30 27 25 26 29 32 31 29 29 31 34 34 32 32 33 32 31 28 27
87 97 103 103 102 103 103 101 98 94 87 82 82 80 78 80 80 77 76 77 77 76 67 59 60 61 54 52 53 47 41 38 37 37 36 35 33 33 33 33 31 31 34 36 35 35 37 38 39 35 32 31 32 35 36 36 37 39 41 41 39 37 36 35 33 31 30 30 30 29 30 30 30 30 29 28 29 31 32 31 32 32 32 31 30 30
83 96 103 105 103 103 104 104 102 96 89 87 87 85 83 81 81 83 82 84 84 77 67 62 61 60 56 53 51 46 42 40 40 39 37 35 33 33 35 33 31 31 33 33 35 37 38 36 35 31 29 29 31 33 34 36 38 40 41 40 38 37 36 35 33 32 30 29 30 31 30 28 27 29 29 28 28 30 31 32 32 32 33 33 33 33
80 93 102 107 106 104 105 107 105 99 94 93 92 89 87 84 85 89 89 91 88 73 63 61 62 63 57 50 49 47 44 43 42 40 38 37 36 35 35 33 31 32 33 33 35 37 36 33 32 29 26 28 30 33 34 37 38 39 39 38 37 36 36 34 34 35 34 33 33 31 28 27 28 30 30 29 29 31 33 34 34 35 35 37 37 36
78 89 99 107 108 104 103 107 107 103 99 98 96 93 91 90 91 93 93 92 79 61 58 62 65 64 55 49 52 50 46 45 43 41 40 40 39 37 36 36 35 34 34 33 32 33 32 31 31 29 27 29 31 33 35 37 38 37 37 36 36 35 34 34 35 36 38 38 37 33 31 31 31 32 33 33 34 35 35 35 37 38 38 39 40 39
74 83 93 102 105 103 103 106 108 106 103 101 99 96 95 93 92 90 88 80 66 58 61 65 67 64 55 53 54 51 49 48 45 42 41 43 41 37 37 38 37 34 33 31 30 30 29 29 30 30 30 31 31 32 34 36 36 35 34 35 35 33 33 35 37 39 39 39 37 35 36 35 34 34 35 35 37 37 37 37 38 39 40 41 41 41
69 78 88 97 102 103 103 105 107 106 104 102 99 97 95 91 87 81 72 65 64 65 65 66 68 63 57 56 55 55 54 50 46 44 43 45 41 38 40 39 36 34 33 31 29 29 29 28 29 30 31 32 32 33 35 35 36 35 34 33 32 32 33 35 39 40 40 39 37 37 38 36 34 35 36 36 37 38 38 38 39 39 40 41 41 41
67 74 82 92 99 103 104 104 105 107 106 105 102 99 94 86 80 73 66 66 73 76 72 70 69 64 62 62 60 60 57 50 48 47 44 44 41 39 41 38 35 35 33 31 29 29 28 28 30 31 32 33 34 35 36 37 37 36 34 33 32 31 32 35 37 39 40 39 38 38 38 37 37 37 38 39 40 41 40 40 40 41 42 41 40 38
65 72 79 88 96 103 106 105 105 107 107 106 104 97 87 79 76 73 72 74 79 81 77 73 69 68 67 65 63 63 56 49 48 47 44 44 43 42 42 38 36 35 33 31 30 30 29 30 32 34 35 35 35 36 38 39 38 37 35 34 33 33 33 34 36 38 39 40 41 40 40 39 39 39 39 40 41 42 42 41 42 43 43 42 40 38
63 71 77 84 93 102 107 107 105 106 107 106 100 89 81 79 80 79 77 78 79 78 76 73 73 72 68 64 64 63 56 49 47 47 46 45 45 45 41 38 37 35 33 33 33 33 33 34 34 35 36 36 36 37 39 40 40 39 38 37 36 35 35 35 36 38 39 41 43 44 43 42 41 41 41 41 42 42 41 40 41 42 43 42 40 38
60 68 75 83 91 100 108 109 106 106 108 105 97 88 85 85 84 81 79 78 77 74 73 75 76 72 66 64 66 64 57 50 47 50 49 46 46 45 40 38 38 36 35 35 35 35 35 35 35 35 36 35 36 38 40 40 40 39 39 38 38 38 37 36 36 38 40 41 43 45 46 46 45 43 41 42 43 43 41 40 41 43 43 42 39 37
56 63 71 80 87 97 108 111 106 104 105 103 99 94 91 88 83 80 78 76 73 71 71 73 73 72 69 67 67 63 56 50 50 53 52 48 47 45 40 40 39 36 36 37 36 34 34 34 35 35 34 33 34 35 36 36 36 36 37 37 38 38 38 37 38 39 40 41 42 45 46 46 47 45 43 42 43 43 43 41 41 42 43 42 41 38
54 60 67 75 84 93 104 108 105 101 101 102 102 98 95 91 88 84 81 77 74 72 71 70 69 70 70 68 67 63 56 52 55 56 53 50 48 46 42 42 40 38 38 37 34 34 34 33 33 31 28 29 31 32 33 33 33 34 35 36 37 37 37 38 39 40 41 41 42 43 44 45 46 47 46 45 44 44 44 43 41 40 40 41 42 41
52 57 64 72 79 87 96 104 104 101 100 100 99 96 93 91 88 84 81 78 75 71 69 67 65 66 67 66 65 62 57 56 58 57 53 49 49 47 43 41 40 39 38 36 34 34 32 31 29 26 24 26 29 31 32 32 32 33 34 35 35 36 37 38 39 40 41 42 42 43 44 44 45 46 47 46 46 45 46 46 45 43 41 40 41 42
50 55 61 68 75 82 93 103 105 102 100 99 97 95 92 90 86 82 78 75 72 69 66 64 62 62 63 61 59 58 57 57 58 57 52 49 49 46 42 41 40 38 37 35 34 33 31 29 27 24 23 27 30 31 31 30 31 32 33 34 34 35 36 37 38 39 41 42 43 43 44 45 45 45 45 46 47 47 48 48 48 46 44 41 42 43
50 54 60 67 74 83 95 105 107 104 101 100 99 97 95 92 87 82 77 73 70 68 66 63 61 60 60 57 54 53 55 56 57 55 51 48 48 45 42 41 39 37 37 35 33 31 29 29 27 24 25 28 31 32 31 30 29 29 30 31 32 34 35 35 36 38 40 42 43 44 44 44 44 44 43 45 46 48 48 48 48 47 44 42 42 44
49 53 59 68 77 87 98 108 110 106 102 102 102 100 98 93 87 82 78 74 71 69 66 62 60 60 59 54 50 50 54 56 56 54 50 48 47 44 41 39 37 36 36 33 31 29 28 29 28 25 27 29 31 32 32 30 27 27 28 28 30 32 33 34 35 36 38 40 42 44 45 44 43 42 42 43 44 46 47 48 48 47 44 42 42 44
50 54 60 68 78 87 99 108 111 108 104 104 104 102 98 92 86 82 78 74 71 69 65 63 63 60 56 50 48 50 55 57 56 52 48 47 47 43 39 37 36 35 34 31 30 29 29 31 29 26 28 30 32 33 31 28 26 26 26 26 28 30 32 32 33 34 36 38 41 44 45 45 43 41 41 42 43 44 46 47 47 46 44 42 42 44
50 56 62 69 76 84 95 104 107 106 104 100 99 98 95 90 86 82 77 73 70 69 68 68 64 57 53 50 50 53 58 58 53 49 47 46 44 39 35 36 36 34 32 30 30 30 30 31 30 28 28 30 32 31 29 26 25 25 25 26 27 29 31 32 32 33 35 36 38 40 42 43 43 41 41 41 42 43 44 44 44 43 43 43 43 43
49 55 62 69 75 82 93 102 104 103 99 94 91 91 90 87 84 80 75 71 70 70 70 66 59 55 54 53 52 56 59 55 49 47 47 45 40 35 36 37 36 34 31 30 31 31 31 31 31 28 28 30 31 29 26 25 24 24 25 25 27 29 29 30 31 32 33 34 35 36 38 39 39 39 39 40 41 41 41 42 42 42 42 43 44 44
49 54 59 66 73 81 91 100 102 99 95 91 88 87 86 85 83 79 75 72 71 71 67 61 58 57 57 55 54 57 58 51 46 47 46 41 38 37 37 36 34 32 31 31 32 33 33 33 32 29 30 30 28 25 25 24 23 24 24 25 27 28 28 29 30 32 32 32 32 33 34 35 35 36 37 38 39 39 39 39 40 41 42 44 45 45
48 54 59 66 74 81 90 98 101 98 95 93 91 89 87 86 83 79 75 73 72 69 64 60 60 58 56 56 56 56 54 48 45 45 43 39 38 38 36 35 33 32 31 32 32 32 33 34 32 31 30 28 25 24 24 24 24 24 24 25 26 26 26 28 29 31 31 30 30 31 32 33 34 35 35 36 37 37 37 38 39 40 42 44 46 47
47 54 60 67 74 81 90 98 101 100 98 97 95 93 90 87 84 80 76 73 71 68 64 63 61 58 58 58 56 54 52 47 44 44 42 40 39 37 36 34 33 31 30 31 31 31 32 33 32 32 30 26 24 23 23 24 24 25 24 25 25 24 25 26 28 29 30 29 29 30 32 33 34 34 34 35 35 35 36 37 38 40 42 43 46 48
49 54 59 65 73 81 90 97 102 102 100 98 97 94 90 87 84 81 77 74 72 68 66 65 62 59 59 57 55 53 50 46 44 44 42 41 39 37 35 34 32 30 29 30 31 32 32 32 33 31 29 25 23 23 23 24 25 24 24 25 24 23 24 25 26 28 29 29 29 30 31 32 33 34 35 35 35 35 36 36 38 40 41 43 45 47
50 55 59 65 72 82 89 96 100 101 100 98 95 92 89 86 83 79 77 76 74 69 67 64 61 59 57 54 52 50 47 45 44 44 43 41 39 37 35 33 32 30 30 30 31 32 32 32 32 30 27 25 23 23 24 25 25 24 23 24 24 23 24 24 25 26 28 29 30 30 31 31 33 33 34 35 35 36 36 37 38 39 41 43 44 46
51 56 61 66 72 80 88 94 98 100 100 96 92 88 86 84 82 79 77 75 72 69 67 64 61 59 57 53 48 46 45 44 43 43 43 41 39 37 35 33 31 30 30 30 31 31 31 31 30 28 26 25 24 24 26 26 24 23 23 25 24 23 23 23 23 25 27 28 29 30 30 30 31 32 33 34 35 36 36 37 38 39 40 42 43 45
51 56 61 66 71 78 86 92 97 99 98 94 89 85 84 83 82 80 78 75 72 69 66 63 61 60 57 55 50 45 43 43 42 43 45 43 41 39 36 34 32 31 31 32 32 32 31 30 29 28 26 25 25 26 26 26 24 23 24 25 24 23 22 22 22 23 24 26 28 29 29 29 30 31 31 32 33 34 34 35 36 37 38 39 40 41
49 54 60 65 70 77 84 91 94 95 93 92 89 86 84 83 81 78 75 73 70 67 64 62 61 58 56 55 53 48 45 43 41 42 45 44 42 40 38 36 34 33 34 34 34 32 30 29 29 28 27 27 26 26 26 26 25 25 25 25 24 24 23 22 23 23 22 23 25 26 27 28 29 30 31 31 31 32 32 32 34 35 36 37 37 38
47 53 59 64 70 76 82 87 90 91 92 91 88 86 84 81 78 75 74 72 69 68 67 65 63 61 58 55 53 52 49 45 40 40 44 45 43 40 38 36 35 36 36 34 34 33 31 30 29 29 29 28 27 27 27 27 26 26 26 25 25 24 24 24 24 24 23 23 24 26 27 27 28 29 31 32 32 33 33 33 34 34 35 35 36 36
46 53 59 65 70 76 80 82 86 90 91 89 87 85 82 79 77 77 75 72 70 68 67 65 63 61 59 56 53 52 52 48 41 37 38 41 41 39 37 36 36 36 36 35 35 35 33 32 30 30 30 29 29 28 27 27 27 27 27 26 25 25 25 26 26 25 24 24 24 26 28 28 29 31 32 34 35 34 34 33 33 33 34 34 35 35
46 52 58 64 69 74 78 80 83 87 89 88 86 83 81 79 80 79 76 73 70 66 64 62 62 60 57 54 53 53 53 51 46 40 39 40 41 39 38 37 38 38 38 38 38 36 35 34 33 32 32 32 31 29 27 27 27 28 29 28 27 27 27 28 27 26 25 25 24 25 27 28 29 32 33 34 33 32 31 30 30 31 31 31 31 32
46 51 56 61 67 73 77 79 80 83 85 86 84 82 81 80 78 76 74 71 67 64 63 62 60 58 55 53 53 53 54 53 50 47 45 44 43 42 40 39 40 41 40 39 39 38 37 36 35 34 34 33 32 30 29 28 28 29 30 30 30 29 29 29 28 27 27 26 25 25 27 28 30 33 34 32 30 29 28 28 28 28 28 29 30 32
45 50 56 61 67 71 75 75 76 79 82 83 81 80 79 78 75 73 70 67 64 64 64 62 59 56 55 55 54 54 54 53 51 48 46 45 44 42 40 39 40 41 41 41 40 39 38 37 36 36 36 35 34 32 31 31 31 31 32 32 32 31 31 31 30 29 29 28 27 27 28 28 29 31 31 30 29 28 27 27 29 30 30 32 34 35
45 50 56 63 68 72 74 74 74 76 79 80 79 78 77 76 74 71 68 67 67 66 64 62 58 56 56 56 55 54 54 52 50 47 45 44 43 42 40 40 40 40 40 40 40 40 40 39 38 38 38 37 36 35 34 34 34 33 33 33 33 33 33 33 32 31 31 30 29 29 29 29 29 30 30 31 31 30 29 30 32 33 33 35 37 37
44 51 57 63 69 73 75 76 74 75 76 77 76 76 75 73 70 67 66 66 65 64 62 60 57 57 57 56 54 54 54 53 50 46 43 41 40 40 40 41 41 41 41 42 42 42 41 40 40 41 41 40 38 38 37 37 36 35 34 34 34 34 34 34 34 34 33 33 32 30 28 28 30 32 34 34 34 33 33 34 36 36 37 40 41 42
42 51 58 64 69 72 74 75 73 71 71 72 72 72 70 68 66 65 64 64 63 61 60 58 57 57 57 57 55 55 55 54 51 47 44 41 38 35 36 40 42 43 44 44 44 44 42 42 42 43 42 42 41 40 40 39 38 37 37 36 36 36 35 35 36 36 36 35 35 33 32 33 35 38 39 38 38 37 37 37 38 39 41 42 43 44
43 51 59 65 68 70 70 71 68 66 67 68 69 69 67 66 65 64 64 63 62 60 59 58 59 60 59 58 57 56 55 52 49 45 42 40 36 32 32 39 44 46 46 47 47 47 46 44 44 43 43 43 43 42 41 41 40 39 39 38 37 37 37 37 37 38 38 37 37 36 36 37 39 40 41 40 41 41 40 39 40 41 42 42 43 44
44 51 58 65 68 68 68 68 66 66 68 69 69 69 68 66 65 64 64 63 62 61 60 61 61 62 61 60 59 58 54 49 44 42 38 38 38 36 35 39 45 47 48 49 49 49 48 46 45 44 43 43 43 43 42 41 40 40 40 40 39 38 38 38 39 39 40 40 40 39 39 40 40 42 42 43 43 44 43 42 42 42 43 44 44 46
45 50 58 66 69 68 68 68 67 67 68 69 69 69 67 66 65 65 64 63 62 61 61 61 60 61 62 61 59 57 53 48 45 44 42 39 39 39 39 43 47 50 52 51 50 51 52 51 49 48 47 45 44 43 43 42 42 42 42 42 41 40 40 41 41 42 42 42 42 42 42 43 43 44 45 45 46 47 47 46 46 46 47 47 47 48
48 52 59 67 71 71 70 69 68 67 68 67 67 67 66 66 67 66 65 64 63 61 60 60 59 59 60 62 59 54 51 50 49 50 48 42 37 38 41 42 45 50 53 51 49 51 53 54 52 50 50 49 47 46 46 46 46 45 45 44 44 43 43 43 44 45 45 45 45 45 45 46 46 47 47 47 48 48 49 49 49 49 50 50 50 50
49 52 59 67 71 72 71 69 69 69 69 68 67 67 67 67 67 67 66 64 64 63 63 61 59 57 57 60 60 57 53 51 51 51 49 42 34 34 38 38 41 50 56 53 50 50 51 51 52 52 51 51 50 49 49 49 49 48 47 47 47 46 46 46 47 47 47 47 48 48 48 48 48 48 49 49 49 49 50 50 50 51 51 52 52 52
49 52 59 67 71 73 72 70 69 70 69 68 68 69 69 69 68 67 66 66 65 66 65 65 63 61 58 58 59 58 56 54 52 51 52 48 39 32 32 35 41 50 57 57 55 53 51 51 53 53 53 53 52 51 51 51 50 50 50 50 49 49 48 48 48 49 49 49 50 50 50 50 50 50 50 50 50 51 51 51 51 52 53 53 53 54
48 52 58 65 70 73 73 71 69 68 68 68 69 69 69 69 69 68 68 67 67 67 67 66 66 64 62 61 60 60 58 57 55 54 55 57 55 48 45 46 48 52 56 57 57 57 57 57 56 55 54 54 53 52 52 52 52 52 52 52 51 51 51 50 50 50 51 51 52 52 52 52 52 51 51 52 52 52 53 53 53 53 54 54 54 54
Wind_Direction
226 225 224 222 222 223 224 224 223 222 222 222 222 223 221 220 218 216 221 226 222 220 224 224 221 221 223 227 231 232 233 235 236 235 237 240 239 240 242 240 243 244 242 244 245 245 245 246 247 248 249 249 249 249 251 252 253 254 254 255 256 257 258 258 259 259 259 259 260 260 260 261 261 263 265 265 266 266 267 268 267 270 270 262 253 250
226 225 223 221 221 222 222 221 220 220 221 220 221 223 220 219 218 215 219 225 222 217 220 223 221 220 222 226 230 231 231 233 232 232 235 238 236 237 240 239 242 243 240 241 245 245 246 247 247 248 248 249 250 251 253 254 254 253 253 253 254 255 256 256 257 257 257 257 258 258 258 259 261 263 263 263 265 265 266 266 266 268 262 252 253 253
225 224 222 220 220 220 220 219 219 219 220 219 220 221 220 218 218 216 217 223 223 215 217 222 221 219 221 224 229 229 229 231 229 228 232 235 235 237 240 240 241 243 240 241 244 245 246 247 247 248 249 250 251 252 253 253 253 253 253 253 253 254 254 255 256 255 256 256 256 256 257 258 260 261 261 261 263 263 263 264 264 265 261 254 255 255
223 222 221 220 219 219 219 219 218 218 218 218 219 220 218 218 218 217 217 221 223 216 214 220 221 218 219 223 228 228 228 229 225 227 232 233 234 237 238 238 240 242 241 242 244 244 245 246 247 248 249 250 252 253 253 252 253 254 254 253 253 254 254 255 255 255 255 255 256 256 257 258 259 259 259 259 260 260 261 263 264 265 264 257 252 253
220 219 219 220 219 218 218 218 218 217 218 218 218 218 217 218 218 218 217 218 222 218 210 216 221 219 218 222 226 226 227 227 222 227 232 230 232 234 235 237 239 240 240 242 244 244 245 246 247 249 251 252 252 252 252 252 253 254 254 253 253 254 254 254 255 255 255 255 256 257 257 258 259 259 259 258 258 260 260 262 263 262 260 255 252 256
218 216 218 219 218 217 217 217 217 217 216 217 217 217 216 217 217 217 218 216 218 218 209 211 220 219 216 221 225 225 225 223 220 226 231 228 229 232 233 236 237 236 237 242 244 244 245 247 247 249 251 251 250 250 250 251 252 253 253 253 253 253 254 254 254 254 255 256 256 257 257 257 257 257 258 258 259 259 258 258 259 256 253 253 256 261
216 214 216 218 217 217 216 216 217 216 215 215 215 215 215 216 216 217 218 216 215 218 210 207 217 218 214 218 221 222 222 219 218 224 227 225 225 230 232 235 235 232 233 239 243 243 244 245 245 246 247 246 247 249 251 252 252 253 253 254 253 252 253 253 254 254 255 255 256 257 256 253 250 251 254 255 255 256 255 253 253 252 253 256 259 261
214 212 214 216 215 215 215 215 216 215 213 213 213 215 214 215 216 215 218 217 212 216 211 202 213 219 213 213 218 219 219 216 217 222 225 224 224 229 232 234 234 229 229 235 239 242 243 244 244 244 245 246 250 254 254 254 254 254 254 253 252 251 251 252 252 252 252 252 253 252 250 249 245 244 247 250 251 252 253 251 250 252 257 261 261 259
212 211 213 215 214 214 214 213 214 215 212 211 212 214 214 215 216 214 217 218 212 214 211 200 211 220 213 212 218 218 218 216 218 223 226 226 226 230 232 233 232 227 228 233 237 242 244 244 245 244 246 250 254 255 254 254 255 254 253 252 250 250 249 249 249 248 247 246 246 245 246 247 244 242 242 245 246 248 250 249 249 253 258 261 260 258
209 210 211 212 213 212 212 212 213 213 211 210 212 213 213 214 215 213 215 218 216 213 209 202 211 220 215 214 219 219 218 217 219 224 226 228 228 231 233 234 233 229 228 231 236 242 244 244 244 246 251 255 255 255 254 253 253 252 251 251 250 250 249 248 248 248 247 245 244 243 243 243 245 245 240 238 240 242 245 246 248 252 254 257 258 258
208 209 209 210 211 210 210 210 211 211 209 209 211 211 212 212 213 213 213 217 218 212 206 206 213 220 216 215 219 220 219 219 220 224 227 229 230 233 235 235 235 233 231 229 232 239 242 243 244 247 255 258 256 257 254 251 250 249 250 251 251 250 249 247 246 246 246 244 241 239 238 238 245 246 240 237 238 237 239 243 246 248 250 252 255 258
207 208 208 208 209 208 207 208 209 209 207 208 210 209 211 210 211 213 212 215 218 210 204 208 214 219 217 214 219 221 220 220 221 223 228 230 230 233 235 235 234 233 233 230 230 235 238 240 242 243 251 256 257 257 253 250 250 249 250 251 250 249 247 244 243 243 242 240 239 239 239 240 243 244 240 241 242 239 240 243 244 245 248 250 253 257
206 207 207 207 207 206 205 206 207 207 206 208 209 208 209 210 211 212 212 214 215 207 203 210 216 219 217 214 220 221 221 223 223 224 230 233 232 233 235 234 233 233 235 235 234 236 238 240 240 239 245 253 255 255 252 251 251 251 251 251 250 248 246 243 242 242 241 240 241 244 246 244 243 243 243 245 246 245 245 246 246 246 248 250 253 257
205 205 207 207 207 204 204 205 206 206 206 208 209 208 209 210 211 213 213 213 213 209 207 212 217 219 217 216 220 223 223 224 225 226 231 235 234 235 237 235 234 234 237 239 240 241 241 241 240 240 246 252 253 253 252 252 253 252 252 252 251 249 246 243 241 241 242 243 243 244 245 244 242 242 245 246 247 247 249 250 250 250 251 252 254 256
204 205 205 206 206 204 203 204 205 205 206 208 209 209 209 210 211 213 213 212 215 216 212 213 218 220 219 219 221 224 225 225 227 228 232 238 237 237 239 238 237 237 238 240 242 244 245 244 243 244 247 249 250 251 252 253 253 252 252 252 252 250 247 243 241 241 243 244 243 240 242 243 243 243 245 247 248 248 250 252 252 252 254 255 255 256
202 203 204 204 204 203 203 204 204 204 205 207 209 209 208 208 210 211 211 211 215 217 214 214 218 219 219 220 221 225 225 224 227 230 233 239 241 240 241 241 239 238 239 240 242 244 245 247 248 248 247 248 249 251 253 254 254 254 254 254 253 251 248 246 243 241 241 242 240 238 239 243 245 245 246 248 248 249 252 254 254 254 255 255 255 257
202 200 201 202 202 201 202 203 203 204 205 207 208 208 206 206 208 209 209 210 213 215 214 213 217 219 219 220 222 226 227 224 228 232 234 238 241 240 240 240 239 238 238 239 239 240 240 242 246 249 249 250 252 255 257 258 258 258 257 255 254 252 249 247 244 241 240 239 237 236 237 240 243 244 245 246 247 249 254 257 256 255 255 255 256 259
202 200 199 200 200 200 200 202 202 202 205 207 208 207 205 206 208 208 208 210 213 214 214 214 217 220 220 221 224 228 228 226 228 234 236 237 240 240 239 240 239 237 238 239 239 239 240 242 247 251 254 256 258 260 261 262 262 261 259 256 254 252 250 248 245 243 242 239 236 235 236 238 240 242 244 246 247 250 255 258 259 258 257 258 259 261
203 201 198 198 199 198 198 200 201 201 203 205 206 204 205 207 208 207 207 210 212 213 213 214 217 220 220 221 225 228 228 227 229 234 237 238 240 241 240 241 240 238 238 240 240 240 242 245 250 255 259 262 263 263 264 264 263 262 260 257 254 252 250 248 245 243 243 241 239 237 238 238 240 242 245 247 249 252 255 260 262 262 261 261 262 262
202 202 198 197 198 197 197 198 199 201 201 202 203 202 204 206 208 208 209 210 212 212 213 215 217 219 220 221 224 228 228 228 230 234 236 237 238 239 238 238 238 236 237 239 240 240 242 246 251 256 260 264 265 264 264 263 263 262 260 257 254 252 250 249 246 244 243 243 243 242 242 242 242 243 246 248 250 253 256 260 263 263 263 263 263 263
199 200 199 197 197 197 197 196 197 199 201 202 202 202 202 204 206 207 207 208 210 211 213 215 216 218 220 221 224 227 228 229 231 234 235 235 236 236 235 236 235 234 236 238 239 240 241 245 249 252 257 261 262 262 262 262 262 261 259 257 254 252 250 248 246 245 244 246 246 245 245 245 245 245 246 247 249 253 256 258 262 264 264 263 263 264
198 198 197 196 195 195 195 194 194 197 200 201 202 202 203 205 205 206 206 207 208 210 212 214 215 218 221 222 224 226 227 228 231 234 233 233 234 235 234 235 234 234 235 236 237 238 241 245 245 245 252 257 259 261 262 263 263 262 260 258 255 253 250 247 246 245 245 246 246 245 245 246 246 246 247 248 250 253 256 258 261 264 265 262 261 262
196 196 195 194 193 192 192 192 193 195 197 199 201 202 204 205 206 206 206 207 208 210 212 213 214 217 220 221 222 224 226 227 230 232 231 231 233 233 233 234 234 234 234 233 235 237 241 244 240 241 251 256 259 262 264 265 265 265 264 261 258 255 252 249 247 246 244 244 245 245 245 247 247 247 249 250 251 253 256 258 260 263 264 262 258 258
192 192 191 190 190 189 189 191 192 193 195 197 199 201 203 205 205 205 205 206 208 210 212 213 214 217 219 220 219 220 223 225 227 229 229 230 232 232 231 234 234 233 232 231 232 233 237 238 235 240 251 256 261 264 265 266 266 267 267 265 262 259 255 252 250 248 246 244 244 244 246 247 249 251 252 252 252 253 255 258 261 263 264 262 257 256
189 189 188 188 188 188 188 189 190 191 194 196 197 199 202 203 204 204 204 204 207 209 212 213 214 216 219 219 218 219 221 223 225 227 227 229 230 229 229 232 231 229 229 228 227 226 227 228 230 240 252 258 263 265 264 265 266 268 269 268 265 261 258 255 253 250 249 246 245 245 247 249 252 254 255 254 255 255 257 259 261 263 263 260 257 255
185 185 186 187 188 188 188 189 189 189 192 196 197 197 199 201 202 204 204 203 206 208 210 213 214 216 217 218 218 218 220 222 224 226 227 227 228 227 227 228 226 224 224 222 220 220 221 222 227 241 253 259 264 265 265 266 267 269 270 269 266 262 258 256 255 253 252 249 248 247 248 251 254 255 256 257 258 258 259 260 260 260 259 258 257 256
184 183 184 186 188 188 188 189 190 190 191 195 197 197 198 199 201 203 203 203 205 208 210 212 213 213 215 216 217 218 220 222 223 225 226 226 226 225 223 222 220 218 218 217 216 218 219 221 229 243 254 260 263 264 265 267 268 270 271 270 268 263 258 256 255 254 253 251 250 250 250 252 254 255 256 257 258 258 258 258 257 257 256 256 257 257
184 183 184 185 186 187 188 188 189 191 191 193 197 199 199 198 201 203 202 203 206 209 211 212 211 211 213 214 215 218 221 222 222 224 224 224 223 219 215 216 215 214 215 216 216 218 220 224 231 244 255 259 260 263 266 267 268 270 272 272 269 265 260 256 254 254 253 252 252 252 252 252 253 254 255 256 256 255 254 255 255 255 255 255 257 258
182 182 183 184 184 186 187 188 188 189 190 191 195 199 200 200 201 202 202 203 207 211 212 211 212 212 213 213 214 218 222 222 220 222 222 220 217 212 210 213 214 215 217 220 221 221 223 227 235 246 255 257 257 261 264 265 268 270 272 273 271 268 263 258 254 254 255 254 254 253 253 254 254 254 255 255 255 254 253 253 254 255 255 255 255 256
180 181 182 184 184 185 186 187 187 188 189 191 193 197 199 200 201 202 202 204 208 210 211 212 214 214 214 214 215 219 222 222 220 221 220 215 211 209 209 212 215 216 218 222 224 224 226 231 240 249 252 252 254 258 261 264 267 269 272 275 275 274 271 265 260 259 258 258 257 256 256 255 255 256 256 256 256 256 254 254 255 256 257 256 255 256
179 180 182 184 184 184 185 187 187 187 189 191 193 195 197 199 200 201 201 204 208 209 210 213 215 215 215 215 216 218 221 221 219 219 217 212 208 209 210 212 214 216 218 222 224 225 229 237 245 248 248 249 252 256 260 264 266 269 272 275 277 279 278 273 268 265 263 263 262 260 259 258 258 258 257 257 258 258 257 257 257 258 259 259 258 257
179 181 182 183 184 184 185 187 187 187 189 192 193 194 195 197 200 200 200 204 208 208 210 213 214 215 216 216 216 218 220 220 218 215 213 209 208 210 213 215 215 216 219 224 225 227 233 241 246 247 247 249 252 255 260 263 266 269 272 274 278 282 281 278 274 270 268 266 265 263 262 262 261 260 259 259 259 259 259 259 260 261 261 262 261 260
179 180 181 183 184 184 185 187 188 188 189 192 194 193 194 196 199 200 201 204 206 207 210 213 214 216 216 216 217 219 221 221 218 213 210 209 209 211 214 215 214 214 219 224 226 230 237 245 248 248 249 249 251 255 259 262 266 270 272 275 279 283 285 285 283 277 272 269 267 267 266 266 264 263 262 261 260 260 260 260 261 262 263 264 264 264
179 180 181 182 184 185 185 186 189 190 190 192 193 193 194 196 198 199 202 205 207 208 209 211 213 215 214 214 215 216 218 219 216 211 208 208 209 210 212 213 215 218 223 227 231 236 243 248 249 249 249 250 252 254 258 262 268 273 274 275 278 283 288 292 291 284 278 274 271 271 271 271 269 266 265 264 263 262 262 262 263 264 264 265 266 266
180 181 181 181 183 185 186 187 189 191 191 191 192 194 196 197 198 199 202 205 207 209 210 212 214 214 213 213 213 212 212 213 213 211 208 208 209 210 212 215 218 222 227 230 234 239 245 248 249 250 250 251 252 254 258 264 269 271 272 274 278 283 288 293 293 289 285 280 276 274 274 274 272 269 266 266 265 265 265 266 266 266 266 266 267 267
182 181 181 181 183 185 186 188 190 191 192 191 192 194 197 199 199 200 203 205 207 209 210 212 214 215 214 214 214 212 208 208 210 211 210 209 210 212 216 218 220 223 227 231 235 239 245 249 251 251 251 251 253 256 260 263 266 268 271 275 278 280 284 288 290 289 287 283 278 276 275 275 274 270 267 266 266 266 266 267 268 268 268 268 268 268
183 181 180 181 183 184 186 187 189 191 193 193 193 195 198 200 201 201 204 206 207 209 210 210 211 212 212 212 213 213 209 207 210 213 213 214 215 217 220 221 223 227 231 233 236 240 246 252 253 252 252 253 255 257 260 263 266 269 272 275 277 278 280 283 285 287 289 286 280 274 271 269 269 267 264 263 263 263 264 265 266 267 268 268 268 269
183 182 181 182 184 184 185 186 189 192 193 193 194 195 198 200 202 202 204 205 207 209 211 212 212 212 211 210 210 211 208 207 209 211 213 217 220 222 224 226 228 232 234 236 239 242 247 252 254 253 254 255 256 259 262 265 268 270 272 274 276 277 277 278 281 284 288 289 287 280 272 266 265 265 264 264 265 266 268 268 268 269 269 270 272 273
182 184 184 184 184 184 184 185 189 192 193 194 195 196 197 200 202 203 203 204 206 208 211 212 213 213 212 211 211 210 208 207 209 209 211 215 218 221 224 228 231 234 236 238 241 245 248 252 254 254 255 256 258 261 264 266 268 269 270 272 273 274 275 276 279 282 284 286 287 283 274 269 269 270 270 271 272 274 274 274 274 275 275 276 278 278
183 185 186 185 184 184 184 185 189 192 194 195 195 196 198 200 202 203 205 205 206 208 210 212 212 212 212 212 211 211 210 210 211 213 214 216 218 221 224 228 232 235 238 240 243 246 249 251 253 255 257 259 261 263 265 265 266 267 268 270 271 272 274 275 277 279 280 281 283 281 276 273 271 272 274 276 276 276 276 277 278 279 280 282 282 280
184 185 185 184 184 183 184 185 188 192 195 196 196 198 200 201 202 203 204 206 207 209 211 211 211 211 211 212 211 211 211 212 213 216 218 221 223 224 226 229 233 236 239 241 243 247 250 253 256 258 260 262 263 263 263 263 264 266 268 270 271 272 273 274 276 276 276 278 279 279 279 278 276 275 276 276 276 275 275 277 279 279 281 283 281 279
184 185 185 184 183 182 182 184 187 192 195 196 197 198 201 202 202 203 203 204 207 209 210 211 211 211 211 212 211 211 212 213 214 217 220 223 226 228 230 232 234 236 240 243 246 250 253 255 256 258 260 261 261 261 261 262 263 266 268 270 271 271 272 273 274 274 274 276 276 276 281 285 283 278 274 271 272 273 273 273 273 274 275 277 277 276
185 186 186 185 184 183 183 184 187 191 194 196 197 199 200 202 203 203 205 206 208 210 211 211 211 211 212 212 212 213 214 215 215 218 221 225 229 232 234 236 239 241 245 248 250 253 254 255 256 257 258 259 260 260 260 262 264 266 267 269 269 270 271 272 273 273 273 273 273 273 276 277 273 268 266 266 268 269 269 268 269 271 273 275 276 276
185 186 185 185 185 185 186 187 189 191 194 196 199 200 201 202 202 204 206 208 209 211 212 212 212 213 213 212 211 214 216 217 218 221 225 228 232 236 241 245 247 250 252 253 254 255 256 257 258 258 259 258 258 259 260 261 264 266 267 268 269 270 271 271 271 272 272 272 272 271 269 266 264 264 266 267 269 270 271 272 273 274 275 275 276 277
183 185 186 186 184 185 188 189 190 193 196 197 200 201 201 202 203 205 207 208 209 211 212 212 213 214 215 213 213 214 217 218 220 224 229 234 235 235 241 250 253 255 256 256 256 258 258 258 257 257 258 259 259 260 261 262 264 266 267 269 270 270 270 270 270 271 271 272 272 271 270 268 268 269 270 272 273 275 275 275 276 276 275 275 277 278
182 185 186 186 184 184 188 190 191 194 197 198 200 201 202 202 204 205 208 209 210 211 212 213 215 215 216 215 215 216 216 217 218 220 226 235 236 230 233 245 252 255 256 256 256 256 254 253 254 256 258 260 261 261 262 262 263 266 268 269 270 270 270 270 270 271 271 271 271 271 271 271 271 271 272 273 274 275 275 275 275 276 276 277 279 280
179 183 185 186 185 185 188 191 193 196 198 199 201 202 202 203 205 206 208 210 211 211 213 215 217 218 218 217 217 218 217 216 216 213 213 222 230 230 234 243 249 253 254 254 254 253 250 250 253 256 258 260 261 261 262 263 264 267 269 269 269 269 269 270 270 271 271 272 272 272 272 272 272 272 273 274 275 276 277 277 277 277 277 278 279 280
178 183 185 186 187 187 189 191 195 198 200 200 203 204 204 205 207 208 209 210 211 212 214 216 218 220 220 219 218 218 217 216 217 215 212 216 226 230 231 238 247 253 254 253 253 253 250 250 252 255 257 259 260 261 262 264 265 267 268 268 268 268 268 268 270 271 272 272 273 273 273 273 274 274 275 276 277 278 279 279 279 279 279 279 279 280
181 184 186 187 188 189 190 192 196 200 201 201 203 205 205 206 208 209 210 212 212 213 214 216 217 220 221 220 219 219 219 219 219 218 215 215 223 230 230 233 244 252 253 251 252 253 252 251 253 255 257 258 259 260 262 263 264 265 266 267 267 267 268 268 269 271 272 273 274 275 275 275 276 276 277 278 279 280 280 280 280 280 279 279 279 280
183 185 187 187 188 190 191 194 197 200 201 202 204 206 206 207 209 210 212 213 215 215 216 217 218 220 222 222 221 221 222 221 222 221 216 212 212 219 223 225 232 242 246 247 248 250 253 255 256 257 258 259 260 260 261 262 263 264 265 266 266 267 267 269 270 271 272 274 275 275 276 277 277 278 279 280 281 281 281 281 281 281 280 280 281 281
183 187 188 189 189 191 193 195 199 201 202 203 206 208 208 209 210 211 213 214 216 217 218 219 220 221 222 222 222 221 221 221 220 220 217 213 210 210 212 216 222 233 241 246 248 252 255 257 257 258 259 259 259 260 261 262 263 264 265 265 265 266 267 268 270 271 272 274 275 276 277 278 279 280 281 282 282 282 282 282 282 282 282 282 282 282
Height
10474 10482 10495 10514 10533 10546 10555 10563 10572 10577 10577 10582 10586 10590 10600 10609 10616 10624 10625 10627 10635 10643 10647 10653 10657 10658 10661 10664 10664 10668 10674 10681 10686 10693 10697 10700 10707 10709 10711 10719 10719 10721 10729 10731 10731 10734 10737 10740 10743 10744 10744 10747 10750 10751 10753 10756 10760 10760 10760 10762 10763 10765 10766 10766 10768 10770 10771 10772 10772 10773 10773 10773 10774 10776 10778 10777 10777 10777 10778 10778 10778 10780 10782 10782 10781 10781
10456 10469 10492 10517 10532 10536 10540 10548 10556 10561 10564 10572 10578 10586 10596 10605 10612 10618 10621 10623 10629 10637 10642 10644 10649 10655 10659 10660 10659 10665 10672 10676 10682 10690 10694 10696 10701 10703 10707 10714 10715 10716 10724 10726 10726 10730 10732 10735 10737 10738 10739 10741 10744 10747 10750 10753 10755 10754 10755 10757 10759 10761 10762 10762 10764 10766 10766 10767 10767 10768 10768 10769 10771 10773 10772 10771 10771 10772 10773 10773 10773 10775 10777 10778 10778 10778
10444 10465 10494 10515 10520 10521 10527 10536 10544 10550 10556 10565 10572 10580 10590 10600 10606 10610 10616 10620 10624 10633 10637 10638 10645 10650 10653 10654 10655 10662 10669 10672 10681 10688 10689 10692 10697 10701 10705 10710 10710 10712 10719 10721 10722 10725 10727 10729 10731 10732 10734 10737 10740 10743 10746 10748 10748 10749 10751 10753 10755 10756 10757 10758 10760 10761 10761 10762 10762 10763 10764 10766 10768 10768 10766 10766 10767 10767 10768 10768 10768 10769 10771 10773 10773 10774
10439 10466 10490 10499 10502 10507 10517 10526 10534 10542 10549 10558 10565 10574 10587 10596 10600 10607 10614 10618 10621 10627 10632 10634 10639 10643 10647 10649 10652 10660 10665 10671 10680 10683 10684 10690 10696 10699 10703 10705 10705 10709 10715 10717 10717 10720 10722 10724 10726 10727 10729 10733 10736 10739 10741 10743 10743 10744 10746 10748 10750 10752 10753 10754 10755 10756 10756 10757 10758 10759 10760 10762 10763 10762 10761 10762 10761 10761 10762 10763 10764 10765 10766 10767 10768 10769
10435 10463 10475 10478 10488 10500 10510 10518 10527 10535 10544 10553 10562 10573 10585 10592 10599 10606 10610 10612 10615 10619 10625 10630 10633 10638 10645 10647 10650 10657 10663 10670 10677 10678 10682 10690 10693 10696 10699 10700 10702 10706 10712 10713 10713 10715 10718 10720 10722 10723 10726 10729 10732 10734 10736 10738 10739 10739 10741 10744 10746 10748 10748 10748 10750 10751 10751 10752 10754 10754 10756 10758 10758 10755 10755 10756 10755 10756 10757 10758 10760 10761 10762 10762 10763 10764
10430 10455 10460 10465 10479 10490 10499 10509 10518 10529 10539 10549 10560 10571 10582 10589 10594 10598 10599 10603 10608 10614 10623 10628 10629 10636 10642 10644 10648 10655 10661 10669 10674 10675 10681 10687 10690 10692 10694 10696 10699 10704 10709 10710 10709 10711 10714 10716 10718 10720 10722 10725 10727 10728 10731 10734 10735 10735 10736 10739 10742 10742 10742 10743 10745 10746 10747 10748 10750 10751 10753 10754 10752 10749 10748 10750 10751 10752 10753 10755 10756 10756 10757 10758 10759 10760
10424 10444 10447 10453 10467 10478 10489 10500 10510 10522 10533 10545 10558 10568 10575 10581 10584 10589 10593 10599 10607 10615 10620 10622 10625 10631 10635 10638 10646 10653 10660 10666 10670 10673 10678 10683 10686 10688 10690 10692 10695 10701 10706 10705 10704 10706 10709 10711 10713 10716 10718 10720 10722 10725 10729 10730 10729 10730 10733 10735 10736 10736 10736 10738 10741 10742 10743 10745 10746 10748 10750 10750 10747 10744 10744 10745 10747 10748 10749 10750 10751 10752 10753 10753 10754 10755
10418 10431 10433 10440 10454 10465 10478 10492 10505 10517 10529 10543 10556 10561 10566 10571 10576 10585 10589 10595 10606 10607 10607 10614 10620 10622 10628 10637 10644 10649 10656 10662 10667 10671 10675 10679 10683 10684 10686 10689 10692 10697 10700 10699 10698 10701 10705 10707 10709 10712 10714 10717 10720 10724 10726 10725 10725 10727 10729 10730 10730 10730 10732 10735 10736 10738 10740 10742 10744 10746 10746 10744 10741 10740 10741 10743 10744 10745 10745 10746 10747 10748 10748 10749 10749 10750
10407 10416 10421 10430 10443 10455 10471 10489 10502 10512 10526 10542 10549 10552 10560 10565 10571 10581 10585 10589 10595 10592 10597 10613 10616 10617 10629 10638 10640 10645 10653 10660 10665 10669 10672 10676 10679 10681 10683 10685 10688 10693 10694 10693 10695 10697 10701 10703 10705 10708 10712 10715 10719 10721 10721 10720 10722 10724 10723 10723 10724 10726 10729 10731 10733 10735 10738 10739 10740 10742 10741 10738 10735 10736 10739 10741 10742 10742 10742 10743 10744 10744 10745 10745 10745 10746
10393 10401 10408 10419 10433 10449 10468 10485 10495 10505 10523 10536 10539 10545 10552 10557 10565 10574 10577 10580 10581 10583 10598 10612 10613 10618 10630 10634 10637 10645 10653 10658 10663 10666 10668 10672 10675 10677 10679 10681 10684 10688 10690 10691 10693 10694 10696 10699 10703 10706 10709 10712 10715 10716 10716 10717 10718 10718 10717 10717 10720 10723 10726 10728 10731 10733 10735 10736 10736 10736 10734 10732 10731 10733 10736 10738 10739 10739 10740 10740 10741 10741 10742 10742 10742 10743
10382 10388 10396 10409 10423 10440 10458 10473 10484 10499 10516 10523 10526 10534 10540 10548 10557 10562 10567 10568 10566 10578 10598 10609 10613 10619 10624 10630 10638 10645 10650 10655 10658 10661 10665 10668 10672 10674 10676 10678 10682 10684 10686 10689 10690 10691 10694 10697 10701 10704 10706 10708 10710 10711 10712 10713 10713 10712 10712 10714 10718 10720 10723 10726 10729 10731 10732 10732 10731 10730 10730 10731 10732 10732 10733 10735 10737 10737 10737 10737 10737 10737 10738 10739 10739 10740
10370 10376 10385 10397 10411 10428 10446 10460 10473 10491 10504 10507 10512 10522 10530 10539 10543 10546 10553 10552 10555 10580 10603 10610 10613 10614 10620 10632 10638 10641 10646 10650 10653 10658 10661 10664 10668 10670 10672 10675 10678 10680 10682 10685 10688 10689 10692 10696 10699 10701 10702 10703 10705 10707 10708 10708 10708 10708 10710 10712 10715 10717 10720 10723 10726 10727 10728 10727 10725 10727 10730 10732 10731 10730 10731 10732 10733 10734 10734 10734 10734 10734 10735 10736 10736 10737
10360 10369 10379 10389 10402 10420 10438 10451 10465 10479 10490 10494 10501 10512 10519 10524 10528 10532 10539 10546 10565 10595 10609 10607 10606 10610 10621 10631 10632 10636 10642 10646 10650 10655 10657 10660 10663 10666 10669 10671 10674 10677 10679 10682 10686 10687 10690 10693 10696 10698 10698 10699 10701 10703 10704 10703 10703 10705 10708 10710 10711 10714 10718 10720 10721 10722 10722 10722 10724 10727 10729 10729 10728 10728 10728 10729 10729 10730 10731 10731 10732 10732 10733 10733 10733 10733
10354 10365 10375 10387 10401 10417 10431 10442 10454 10468 10479 10486 10494 10503 10508 10514 10521 10529 10542 10564 10586 10599 10601 10599 10601 10609 10620 10625 10627 10633 10638 10641 10646 10651 10654 10655 10659 10664 10666 10668 10671 10675 10677 10681 10683 10685 10688 10690 10692 10695 10696 10696 10699 10700 10700 10699 10700 10703 10704 10706 10708 10712 10715 10716 10716 10716 10717 10719 10722 10723 10723 10723 10724 10725 10725 10725 10726 10726 10727 10728 10728 10729 10729 10729 10729 10730
10352 10362 10372 10384 10398 10414 10426 10436 10450 10466 10477 10484 10491 10499 10507 10516 10528 10543 10563 10584 10591 10591 10595 10597 10598 10608 10618 10621 10626 10628 10631 10637 10643 10647 10650 10651 10656 10662 10662 10665 10671 10674 10676 10679 10682 10683 10686 10688 10690 10693 10694 10695 10697 10697 10696 10696 10697 10699 10701 10703 10705 10708 10711 10711 10711 10712 10713 10716 10717 10717 10717 10719 10721 10722 10722 10722 10722 10722 10723 10724 10724 10725 10725 10725 10725 10725
10347 10357 10368 10379 10394 10411 10424 10433 10446 10459 10468 10475 10483 10492 10505 10522 10539 10555 10570 10579 10576 10577 10584 10588 10594 10606 10611 10614 10619 10619 10625 10635 10640 10643 10648 10650 10654 10658 10660 10664 10669 10671 10675 10678 10680 10682 10684 10685 10688 10690 10691 10692 10693 10693 10692 10693 10693 10696 10698 10700 10702 10705 10706 10706 10707 10708 10711 10712 10712 10712 10714 10716 10717 10718 10718 10718 10718 10719 10719 10720 10721 10721 10721 10721 10721 10722
10342 10351 10361 10373 10387 10404 10417 10428 10440 10452 10462 10469 10476 10492 10514 10534 10545 10552 10559 10561 10560 10564 10574 10585 10595 10600 10602 10608 10614 10616 10624 10634 10637 10641 10645 10648 10650 10653 10657 10662 10665 10668 10672 10675 10677 10679 10680 10682 10684 10687 10688 10689 10690 10689 10689 10689 10690 10693 10696 10697 10699 10701 10701 10702 10703 10705 10706 10707 10707 10708 10710 10712 10712 10713 10713 10714 10714 10715 10716 10717 10717 10717 10717 10717 10718 10718
10339 10346 10356 10369 10381 10395 10410 10421 10433 10448 10459 10467 10481 10505 10524 10530 10531 10537 10545 10549 10552 10561 10574 10587 10591 10591 10599 10609 10612 10614 10622 10631 10636 10638 10641 10645 10647 10650 10655 10659 10662 10666 10669 10671 10674 10676 10677 10679 10682 10683 10684 10686 10686 10686 10685 10686 10687 10690 10692 10693 10695 10696 10697 10698 10699 10701 10701 10702 10702 10704 10706 10707 10707 10708 10708 10709 10710 10711 10712 10712 10713 10713 10713 10714 10714 10714
10336 10343 10352 10363 10374 10388 10401 10413 10427 10440 10451 10466 10489 10509 10515 10515 10520 10530 10538 10543 10551 10563 10575 10581 10584 10590 10600 10607 10608 10611 10619 10629 10635 10634 10637 10643 10645 10648 10654 10656 10659 10663 10666 10667 10670 10673 10676 10678 10680 10680 10681 10682 10683 10681 10681 10682 10684 10685 10687 10688 10690 10691 10693 10694 10695 10696 10697 10697 10698 10700 10701 10701 10701 10703 10704 10705 10705 10706 10707 10708 10708 10709 10709 10709 10709 10709
10335 10343 10351 10359 10370 10382 10392 10406 10425 10439 10451 10466 10483 10493 10500 10509 10522 10531 10539 10546 10556 10565 10572 10576 10582 10589 10597 10601 10605 10609 10617 10627 10631 10629 10633 10639 10641 10645 10650 10652 10655 10660 10661 10663 10667 10671 10673 10676 10677 10677 10678 10679 10678 10677 10678 10678 10680 10681 10682 10683 10684 10686 10688 10690 10691 10691 10692 10693 10694 10695 10696 10696 10697 10699 10700 10701 10701 10702 10703 10703 10703 10704 10704 10704 10703 10703
10334 10342 10351 10359 10368 10378 10389 10406 10425 10441 10453 10464 10472 10480 10490 10500 10511 10521 10532 10542 10552 10559 10565 10572 10580 10587 10592 10598 10602 10607 10616 10624 10625 10624 10630 10636 10638 10642 10646 10648 10652 10656 10657 10660 10665 10668 10670 10672 10673 10673 10675 10675 10674 10674 10675 10676 10677 10677 10677 10678 10680 10682 10684 10685 10685 10686 10687 10689 10689 10690 10691 10692 10693 10694 10696 10697 10697 10697 10698 10699 10699 10699 10699 10699 10698 10699
10334 10342 10350 10359 10368 10381 10397 10413 10426 10438 10450 10462 10474 10484 10493 10500 10509 10519 10528 10538 10548 10556 10563 10570 10579 10585 10588 10593 10600 10606 10613 10619 10619 10620 10627 10633 10635 10638 10642 10646 10649 10652 10655 10659 10662 10664 10667 10669 10670 10670 10671 10671 10671 10672 10672 10673 10674 10674 10674 10675 10676 10677 10679 10680 10680 10681 10682 10684 10684 10685 10686 10687 10689 10690 10691 10692 10692 10693 10693 10694 10694 10694 10694 10694 10694 10694
10334 10342 10351 10361 10372 10386 10399 10411 10422 10433 10445 10460 10475 10487 10496 10503 10511 10521 10531 10541 10549 10557 10563 10569 10576 10581 10584 10590 10598 10605 10610 10614 10615 10617 10624 10629 10631 10635 10640 10643 10646 10649 10653 10656 10659 10662 10665 10667 10667 10667 10667 10667 10668 10669 10670 10672 10672 10671 10671 10672 10672 10674 10675 10676 10676 10676 10678 10679 10679 10681 10681 10682 10684 10685 10686 10687 10687 10688 10688 10689 10690 10690 10690 10689 10689 10689
10334 10342 10351 10361 10370 10381 10392 10403 10415 10427 10440 10453 10465 10478 10487 10495 10506 10519 10531 10541 10548 10555 10560 10567 10574 10577 10581 10588 10596 10603 10606 10609 10610 10614 10621 10625 10628 10633 10638 10640 10644 10647 10650 10654 10657 10660 10663 10664 10664 10664 10663 10664 10665 10666 10668 10669 10670 10669 10668 10669 10670 10670 10671 10672 10672 10672 10673 10674 10675 10676 10677 10678 10679 10680 10681 10682 10682 10683 10683 10684 10684 10685 10685 10685 10685 10685
10335 10343 10352 10358 10365 10372 10380 10390 10402 10418 10434 10444 10454 10466 10476 10489 10505 10517 10525 10535 10543 10551 10557 10565 10570 10572 10578 10587 10596 10600 10601 10603 10606 10611 10617 10622 10625 10631 10635 10638 10642 10645 10647 10652 10655 10657 10660 10661 10661 10660 10660 10661 10662 10663 10665 10667 10667 10667 10666 10666 10667 10667 10667 10668 10668 10668 10669 10670 10671 10671 10672 10673 10674 10675 10676 10676 10677 10678 10678 10679 10679 10680 10680 10681 10681 10681
10335 10343 10351 10358 10364 10370 10377 10386 10399 10412 10425 10435 10447 10459 10472 10489 10504 10512 10522 10532 10540 10547 10555 10559 10562 10568 10578 10587 10593 10595 10595 10597 10602 10608 10614 10619 10622 10629 10634 10636 10639 10641 10645 10649 10652 10654 10656 10656 10657 10656 10657 10658 10659 10660 10661 10664 10665 10664 10663 10663 10663 10663 10664 10664 10664 10665 10665 10666 10666 10666 10668 10669 10669 10670 10671 10671 10671 10672 10673 10673 10674 10675 10675 10676 10676 10677
10337 10343 10350 10358 10368 10378 10387 10398 10410 10419 10428 10440 10454 10464 10476 10491 10502 10510 10521 10531 10538 10545 10548 10549 10556 10569 10579 10584 10588 10589 10587 10592 10601 10607 10612 10616 10621 10628 10632 10633 10635 10638 10642 10645 10648 10650 10652 10653 10653 10653 10655 10656 10657 10657 10659 10660 10661 10661 10660 10661 10660 10660 10660 10660 10661 10661 10661 10662 10662 10663 10664 10665 10665 10666 10666 10666 10666 10667 10668 10668 10669 10670 10671 10671 10672 10672
10340 10347 10353 10360 10370 10381 10391 10402 10415 10427 10440 10454 10467 10477 10487 10496 10503 10512 10523 10532 10537 10539 10540 10548 10561 10570 10574 10578 10582 10582 10582 10591 10601 10605 10608 10614 10620 10626 10629 10629 10633 10636 10639 10642 10645 10647 10649 10650 10650 10652 10653 10655 10655 10655 10656 10657 10658 10658 10657 10657 10657 10656 10656 10657 10657 10657 10657 10658 10658 10659 10659 10660 10661 10662 10661 10661 10662 10662 10663 10664 10664 10665 10666 10667 10667 10668
10344 10351 10359 10366 10373 10382 10392 10404 10418 10432 10445 10457 10468 10480 10491 10497 10504 10513 10522 10529 10532 10533 10541 10554 10561 10564 10568 10574 10577 10577 10580 10591 10600 10602 10607 10614 10619 10623 10625 10628 10632 10635 10638 10640 10641 10644 10646 10646 10648 10650 10652 10653 10654 10654 10653 10654 10655 10655 10654 10654 10653 10653 10653 10653 10653 10652 10652 10654 10654 10654 10655 10655 10656 10657 10657 10657 10657 10658 10659 10659 10660 10661 10662 10662 10663 10663
10347 10354 10361 10369 10375 10383 10394 10406 10418 10431 10442 10451 10461 10473 10483 10493 10502 10511 10519 10524 10527 10534 10546 10553 10556 10561 10567 10572 10574 10576 10582 10591 10598 10601 10607 10613 10617 10621 10624 10627 10630 10633 10635 10637 10638 10641 10643 10644 10647 10649 10650 10652 10652 10652 10651 10652 10652 10652 10652 10651 10650 10650 10650 10650 10650 10649 10649 10649 10650 10650 10650 10650 10651 10652 10652 10653 10653 10654 10655 10656 10656 10656 10657 10658 10658 10658
10351 10356 10362 10369 10377 10385 10396 10406 10414 10423 10433 10442 10452 10463 10474 10486 10496 10505 10515 10521 10526 10536 10544 10547 10552 10559 10564 10568 10572 10576 10581 10590 10597 10601 10607 10612 10615 10619 10621 10624 10627 10630 10632 10633 10635 10638 10640 10642 10644 10646 10648 10650 10650 10650 10650 10649 10649 10649 10649 10648 10648 10648 10647 10647 10647 10646 10645 10646 10646 10646 10646 10646 10647 10648 10648 10649 10649 10650 10651 10651 10652 10652 10652 10653 10653 10653
10351 10358 10364 10372 10379 10386 10395 10404 10410 10418 10428 10438 10447 10458 10471 10483 10492 10502 10512 10518 10524 10533 10539 10543 10550 10556 10560 10566 10572 10575 10582 10590 10596 10600 10605 10609 10614 10617 10619 10622 10625 10628 10630 10631 10633 10635 10637 10639 10641 10643 10645 10647 10648 10648 10647 10647 10646 10646 10647 10646 10645 10645 10644 10644 10644 10643 10643 10643 10642 10642 10643 10643 10644 10644 10644 10645 10645 10645 10646 10646 10646 10647 10647 10647 10647 10648
10352 10359 10366 10374 10381 10386 10393 10404 10413 10420 10428 10437 10448 10460 10472 10482 10492 10502 10509 10513 10520 10529 10535 10541 10549 10554 10560 10567 10572 10576 10582 10589 10594 10598 10603 10607 10611 10614 10617 10619 10622 10625 10627 10628 10630 10632 10634 10636 10638 10640 10642 10644 10645 10645 10644 10644 10644 10644 10644 10643 10643 10643 10642 10641 10641 10641 10640 10640 10639 10640 10640 10640 10641 10641 10641 10641 10641 10641 10642 10642 10641 10642 10642 10642 10642 10643
10354 10360 10366 10374 10381 10388 10396 10406 10416 10421 10428 10440 10455 10467 10475 10482 10490 10500 10508 10514 10521 10528 10533 10540 10546 10551 10558 10565 10571 10576 10582 10587 10592 10597 10601 10605 10608 10611 10614 10617 10620 10623 10625 10626 10628 10629 10631 10632 10634 10636 10638 10640 10641 10641 10641 10641 10641 10642 10641 10640 10640 10640 10640 10639 10639 10638 10637 10637 10637 10637 10637 10637 10637 10637 10637 10637 10637 10637 10638 10638 10637 10637 10638 10638 10637 10637
10358 10362 10368 10375 10383 10392 10400 10407 10415 10424 10434 10447 10461 10471 10478 10483 10489 10497 10505 10512 10519 10526 10533 10539 10543 10548 10556 10563 10568 10574 10580 10586 10591 10594 10598 10603 10605 10608 10612 10615 10618 10621 10622 10622 10624 10625 10627 10628 10630 10632 10634 10636 10637 10637 10637 10638 10638 10638 10638 10637 10638 10638 10637 10637 10636 10635 10634 10634 10634 10634 10634 10634 10633 10633 10633 10633 10633 10633 10634 10634 10634 10633 10633 10633 10633 10633
10363 10367 10373 10379 10385 10394 10402 10409 10419 10431 10443 10451 10460 10470 10477 10482 10490 10499 10507 10513 10520 10528 10534 10538 10542 10549 10556 10562 10567 10573 10578 10584 10588 10592 10596 10600 10603 10607 10610 10613 10616 10617 10617 10618 10620 10621 10623 10625 10626 10628 10630 10632 10633 10634 10634 10634 10634 10635 10635 10634 10635 10635 10635 10634 10633 10632 10632 10631 10630 10630 10630 10630 10629 10629 10629 10629 10629 10629 10629 10630 10630 10629 10629 10629 10629 10628
10368 10372 10377 10383 10388 10395 10404 10414 10426 10436 10444 10452 10461 10469 10477 10485 10495 10503 10509 10514 10519 10524 10527 10532 10538 10546 10553 10559 10565 10571 10577 10582 10586 10590 10595 10598 10602 10606 10608 10610 10612 10613 10614 10616 10617 10618 10620 10621 10623 10624 10626 10627 10629 10630 10630 10630 10631 10631 10631 10631 10631 10631 10631 10631 10630 10629 10629 10628 10628 10627 10626 10625 10625 10624 10624 10624 10624 10625 10625 10626 10626 10625 10625 10625 10624 10624
10371 10375 10380 10384 10390 10397 10406 10418 10428 10435 10444 10454 10463 10471 10480 10488 10493 10498 10503 10509 10516 10521 10526 10533 10539 10544 10551 10558 10563 10569 10575 10580 10584 10590 10595 10599 10602 10605 10606 10608 10609 10610 10611 10613 10613 10615 10616 10617 10619 10620 10621 10623 10625 10626 10626 10627 10627 10627 10627 10627 10628 10628 10628 10627 10627 10626 10626 10625 10625 10623 10622 10621 10621 10620 10621 10621 10621 10621 10622 10622 10621 10621 10621 10620 10620 10620
10375 10380 10384 10388 10394 10402 10410 10418 10427 10436 10446 10455 10463 10471 10477 10480 10485 10492 10500 10507 10514 10521 10528 10534 10539 10545 10552 10558 10563 10567 10572 10576 10581 10587 10591 10595 10599 10601 10603 10604 10605 10606 10607 10609 10610 10612 10613 10614 10615 10616 10617 10619 10620 10622 10623 10624 10624 10624 10623 10624 10624 10624 10624 10624 10624 10624 10623 10623 10622 10620 10618 10618 10618 10618 10618 10618 10619 10619 10619 10618 10618 10617 10617 10617 10617 10617
10378 10383 10389 10394 10399 10406 10413 10421 10430 10441 10450 10456 10463 10468 10472 10476 10485 10494 10502 10509 10517 10523 10527 10532 10538 10545 10552 10557 10561 10564 10568 10573 10578 10582 10585 10589 10593 10596 10598 10600 10601 10602 10604 10606 10607 10608 10610 10611 10611 10612 10613 10615 10616 10618 10619 10620 10621 10620 10620 10620 10620 10621 10621 10621 10621 10621 10620 10620 10620 10617 10616 10616 10617 10616 10616 10616 10616 10615 10615 10615 10614 10614 10614 10614 10614 10613
10381 10386 10392 10397 10403 10410 10419 10428 10437 10445 10451 10458 10464 10469 10473 10480 10488 10496 10505 10513 10519 10521 10524 10530 10537 10544 10549 10553 10557 10561 10565 10570 10575 10579 10583 10587 10589 10592 10594 10596 10597 10599 10601 10603 10604 10605 10607 10607 10608 10609 10610 10611 10612 10614 10615 10616 10617 10617 10617 10617 10617 10617 10617 10617 10617 10617 10617 10617 10617 10616 10615 10615 10614 10613 10613 10613 10611 10610 10611 10611 10611 10611 10612 10611 10609 10609
10385 10390 10395 10400 10406 10413 10422 10430 10438 10443 10449 10456 10463 10468 10474 10481 10489 10497 10505 10510 10513 10516 10522 10529 10536 10542 10545 10549 10555 10559 10563 10568 10573 10577 10582 10585 10588 10591 10593 10594 10595 10597 10598 10600 10601 10602 10604 10605 10605 10606 10606 10607 10608 10609 10611 10612 10613 10614 10614 10614 10614 10614 10614 10614 10613 10613 10614 10614 10614 10614 10613 10612 10611 10610 10609 10608 10607 10606 10606 10607 10607 10607 10608 10607 10604 10604
10389 10394 10399 10405 10410 10416 10421 10427 10434 10441 10448 10457 10463 10467 10474 10483 10493 10501 10506 10509 10512 10518 10524 10529 10536 10539 10542 10548 10554 10558 10561 10566 10571 10576 10581 10585 10588 10590 10592 10593 10594 10595 10596 10598 10599 10600 10601 10601 10602 10602 10602 10603 10604 10605 10606 10607 10608 10610 10610 10610 10611 10611 10610 10610 10610 10610 10610 10610 10610 10611 10611 10609 10607 10605 10604 10604 10604 10603 10603 10603 10603 10603 10603 10602 10601 10600
10392 10397 10404 10409 10416 10423 10429 10433 10440 10447 10455 10463 10469 10474 10481 10489 10497 10501 10504 10508 10514 10519 10524 10530 10535 10536 10539 10546 10551 10554 10558 10564 10570 10576 10581 10585 10589 10593 10594 10593 10593 10593 10594 10594 10595 10596 10597 10598 10598 10598 10598 10599 10600 10600 10601 10602 10603 10605 10606 10606 10607 10607 10607 10606 10606 10605 10605 10605 10606 10606 10606 10605 10603 10601 10600 10601 10600 10599 10599 10599 10599 10598 10597 10597 10596 10595
10395 10401 10407 10414 10421 10430 10437 10443 10450 10457 10463 10468 10473 10478 10484 10490 10494 10497 10500 10506 10512 10518 10523 10527 10529 10531 10536 10542 10547 10550 10556 10564 10572 10579 10583 10586 10590 10594 10595 10591 10589 10588 10589 10590 10591 10592 10593 10594 10594 10594 10595 10595 10596 10596 10597 10598 10599 10600 10600 10601 10602 10602 10602 10602 10601 10601 10601 10600 10600 10600 10600 10599 10598 10597 10596 10596 10595 10594 10594 10594 10593 10592 10591 10591 10590 10589
10397 10404 10411 10418 10425 10433 10439 10446 10452 10456 10460 10465 10469 10474 10481 10486 10490 10494 10498 10503 10508 10513 10518 10520 10522 10527 10532 10537 10542 10547 10556 10565 10573 10580 10585 10587 10588 10589 10588 10586 10583 10582 10582 10584 10586 10587 10588 10589 10590 10590 10591 10591 10591 10592 10592 10593 10594 10594 10595 10596 10597 10597 10597 10596 10596 10596 10595 10595 10595 10595 10594 10593 10592 10591 10591 10591 10590 10588 10588 10588 10588 10587 10586 10585 10585 10584
10398 10404 10411 10418 10426 10432 10438 10444 10448 10452 10457 10463 10467 10473 10480 10485 10488 10491 10495 10500 10505 10510 10514 10516 10519 10523 10528 10533 10539 10546 10555 10564 10569 10573 10577 10579 10580 10580 10580 10579 10577 10576 10576 10577 10579 10581 10583 10584 10585 10585 10586 10587 10587 10588 10588 10588 10589 10589 10590 10590 10591 10591 10591 10591 10590 10590 10589 10589 10589 10589 10588 10588 10587 10586 10586 10586 10585 10583 10582 10582 10582 10581 10580 10580 10580 10578
10397 10402 10408 10416 10423 10429 10434 10441 10447 10451 10455 10461 10467 10473 10479 10483 10485 10488 10492 10497 10503 10508 10512 10514 10515 10519 10524 10530 10536 10543 10550 10556 10560 10565 10569 10570 10571 10573 10574 10574 10572 10570 10570 10571 10573 10574 10577 10578 10579 10580 10581 10582 10583 10583 10583 10584 10584 10584 10584 10584 10585 10585 10585 10585 10584 10584 10584 10583 10583 10583 10583 10582 10582 10581 10580 10580 10579 10578 10577 10576 10576 10575 10574 10574 10574 10572
10397 10402 10407 10413 10421 10427 10433 10438 10443 10446 10451 10457 10462 10467 10473 10478 10481 10485 10490 10495 10499 10504 10507 10509 10512 10515 10521 10527 10532 10538 10543 10548 10553 10559 10565 10567 10567 10567 10569 10572 10570 10565 10563 10565 10567 10569 10571 10573 10574 10575 10576 10577 10578 10579 10579 10579 10579 10579 10579 10579 10579 10579 10579 10579 10579 10578 10578 10577 10577 10577 10577 10577 10576 10575 10574 10574 10573 10572 10571 10570 10570 10569 10567 10566 10567 10566
10398 10402 10407 10412 10419 10425 10431 10435 10438 10443 10449 10455 10458 10461 10467 10473 10477 10482 10487 10491 10494 10498 10502 10505 10508 10513 10518 10523 10529 10534 10538 10543 10548 10553 10559 10563 10564 10563 10564 10567 10565 10559 10557 10559 10562 10563 10566 10568 10569 10570 10570 10571 10573 10573 10573 10574 10574 10574 10574 10573 10573 10573 10574 10573 10573 10572 10572 10572 10571 10571 10571 10570 10570 10569 10568 10567 10567 10566 10564 10563 10563 10562 10561 10560 10560 10559
10398 10403 10407 10412 10418 10423 10428 10432 10436 10441 10447 10451 10455 10459 10464 10469 10474 10478 10481 10484 10488 10493 10498 10501 10504 10509 10513 10518 10523 10528 10532 10536 10540 10545 10550 10555 10558 10559 10558 10558 10555 10552 10551 10554 10557 10559 10561 10562 10563 10564 10565 10566 10567 10567 10568 10568 10568 10568 10568 10568 10567 10567 10567 10568 10567 10566 10566 10566 10565 10565 10565 10564 10564 10563 10562 10561 10560 10559 10557 10556 10556 10555 10554 10553 10553 10552